Regional Weather Roundup
Issued by NWS

Home | Current Version | Previous Version | Text Only | Print | Product List | Glossary Off
Versions: 1 2 3 4 5 6 7 8 9 10 11 12 13 14 15 16 17 18 19 20 21 22 23 24 25 26 27 28 29 30 31 32 33 34 35 36 37 38 39 40 41 42 43 44 45 46 47 48 49 50

923
ASUS45 KTFX 221210
RWRMT
MONTANA REGIONAL WEATHER ROUNDUP
NATIONAL WEATHER SERVICE GREAT FALLS MT
500 AM MST SUN JAN 22 2017

NOTE: "FAIR" INDICATES FEW OR NO CLOUDS BELOW 12000 FEET WITH NO
SIGNIFICANT WEATHER AND/OR OBSTRUCTIONS TO VISIBILITY.

MTZ001>007-043-221300-
WEST OF THE DIVIDE

CITY           SKY/WX    TMP DP  RH WIND       PRES   REMARKS
KALISPELL      CLOUDY    22  21  96 CALM      29.80S FOG
MISSOULA       FOG       21  20  96 CALM      29.83S VSB 1/4
BUTTE          CLOUDY     9   5  84 SE5       29.79F
MULLAN PASS    FOG       25  22  88 S6        29.68S VSB 1/2 WCI  18
ANACONDA         N/A     23  16  74 S10       29.79S WCI  12
DEER LODGE       N/A     18  14  86 CALM      29.81F
EUREKA           N/A     27  25  93 CALM      29.82S
HAMILTON         N/A     23  21  93 CALM      29.81R
PLAINS           N/A     20  15  81 CALM      29.84R
RONAN            N/A     26  24  92 CALM      29.85S VSB 0
$$

MTZ008-052>055-221300-
SOUTHWEST MONTANA

CITY           SKY/WX    TMP DP  RH WIND       PRES   REMARKS
BOZEMAN        CLOUDY    13  10  88 SE5       29.83S
DILLON         CLEAR    N/A N/A N/A SE9       29.81S
W YELLOWSTONE  CLOUDY    23  19  86 SW9       29.85S WCI  13
ENNIS          CLOUDY    27  19  74 S14       29.87F WCI  15
TWIN BRIDGES     N/A     12   3  67 CALM      29.83S
$$

MTZ009-010-012-014-046-048-049-054-221300-
EAST SLOPES AND CENTRAL MONTANA

CITY           SKY/WX    TMP DP  RH WIND       PRES   REMARKS
CUT BANK       CLOUDY    23  22  96 NW6       29.78R FOG     WCI  16
GREAT FALLS    CLOUDY    25  20  81 CALM      29.80R
MALMSTROM AFB  CLOUDY    25  22  88 SW7       29.81R WCI  18
HELENA         CLOUDY    11   8  88 CALM      29.85R
AUGUSTA        MOCLDY    18  15  88 NE6       29.76F WCI  10
BOWMANS CRNR   MOCLDY    24  19  80 S13       29.75S WCI  12
CHOTEAU          N/A     21  18  86 SW5       29.80S
CONRAD           N/A     21  19  92 W3        29.83R
POWER          MOCLDY    19  14  84 CALM      29.78R
RAYNESFORD     MOCLDY    24  20  85 CALM      29.79R
ULM            CLOUDY    27  23  82 MISG      29.80R
$$

MTZ011-013-016-021-045-047-050-051-221300-
NORTH CENTRAL MONTANA

CITY           SKY/WX    TMP DP  RH WIND       PRES   REMARKS
HAVRE          CLOUDY    25  24  96 SW12      29.81R WCI  14
LEWISTOWN      CLOUDY    23  16  74 NW3       29.77R
CHINOOK          N/A     28  27  93 SW9       29.81R WCI  20
DENTON           N/A     22  20  89 NW3       29.75S
FORT BENTON      N/A     27  23  86 MISG      29.84R
GEYSER         MOCLDY    25  20  82 SW14      29.77R WCI  13
GRASS RANGE      N/A     26  20  77 W13       29.73R WCI  15
JUDITH GAP       N/A     27  14  58 W9        29.76R WCI  17
ROY              N/A     25  21  83 MISG      29.74S
STANFORD         N/A     27  21  78 W12       29.76S WCI  16
WINIFRED       MOCLDY    24  23  93 W16       29.77R WCI  11
$$

MTZ017>020-022>027-061-062-221300-
NORTHEAST MONTANA

CITY           SKY/WX    TMP DP  RH WIND       PRES   REMARKS
GLASGOW        CLOUDY    27  25  92 W14       29.76R WCI  16
JORDAN           N/A     16  13  88 VRB3      29.78R
SIDNEY         CLOUDY    27  25  92 W6        29.76R FOG     WCI  20
WOLF POINT     CLOUDY    29  25  85 W12       29.77R WCI  19
PLENTYWOOD       N/A     28  28 100 W8        29.70R WCI  20
POPLAR           N/A     27  25  93 W6        29.76R WCI  20
SCOBEY           N/A     28  21  75 NW12      29.71R WCI  18
$$

MTZ028>42-056>058-221300-
SOUTHCENTRAL AND SOUTHEAST MONTANA

CITY           SKY/WX    TMP DP  RH WIND       PRES   REMARKS
BAKER          MOCLDY    17  14  88 W14       29.76R WCI   3
BILLINGS       CLOUDY    27  18  69 SW13      29.79S WCI  16
LIVINGSTON     CLOUDY    31  17  56 W17G24    29.79S WCI  19
MILES CITY     CLOUDY    12   9  87 S3        29.79R FOG
BIG TIMBER     CLOUDY    30  19  64 W14       29.81R WCI  20
EKALAKA          N/A     21  16  81 SW5       29.74R
FORSYTH          N/A     18  16  93 W3        29.78R
HARLOWTON      MOCLDY    25  20  79 W13       29.78R WCI  14
LAUREL           N/A     21  11  65 W2        29.80R
ROUNDUP          N/A     24  15  68 S8        29.72R WCI  15
$$

REGIONAL REPORTS...DAKOTAS

CITY           SKY/WX    TMP DP  RH WIND       PRES   REMARKS
WILLISTON      CLOUDY    30  27  88 W9        29.72R WCI  22
MINOT          CLOUDY    31  26  82 W17       29.65S WCI  19
DICKINSON      CLOUDY    20  17  88 W15       29.69R WCI   6
BEACH          CLOUDY    23  23 100 W15       29.77R FOG     WCI  10
CROSBY         CLOUDY    28  28 100 W8        29.70S WCI  20
TIOGA          CLOUDY    28  28 100 NW12      29.70R WCI  18
WATFORD CITY   CLOUDY    27  27 100 W12       29.72R WCI  16
BISMARCK       CLOUDY    28  26  92 W9        29.71R WCI  19
GRAND FORKS    CLOUDY    34  32  92 W5        29.66R
FARGO          CLOUDY    35  33  92 W6        29.67R FOG     WCI  30
BUFFALO SD       N/A     18  15  88 W13       29.66R WCI   5
RAPID CITY     CLEAR     28  19  69 W9        29.74R WCI  19
$$

REGIONAL REPORTS...WYOMING/IDAHO/WASHINGTON

CITY           SKY/WX    TMP DP  RH WIND       PRES   REMARKS
GILLETTE       PTCLDY    25  19  78 W10       29.78R WCI  15
SHERIDAN       CLOUDY    24  17  74 MISG      29.79R
BUFFALO WY     CLOUDY    30  17  58 NW8       29.78R WCI  22
CODY           CLOUDY    33  15  47 W7G17     29.81R WCI  27
YELLOWSTONE LA   N/A     10   9  95 CALM      29.84S
IDAHO FALLS    LGT SNOW  21  20  96 N5        29.91S FOG
SALMON         CLOUDY    12  10  92 CALM      29.87F
BOISE          CLEAR     35  27  72 SE14      29.76F WCI  26
SPOKANE        MOCLDY    35  32  88 SE7       29.71F WCI  29
$$

REGIONAL REPORTS...ALBERTA

CITY           SKY/WX    TMP DP  RH WIND       PRES   REMARKS
EDMONTON       CLOUDY    16   9  73 NE7       29.91R VSB 3/4 WCI   6
LETHBRIDGE     CLOUDY    23 N/A N/A W5        29.82S
MEDICINE HAT   CLOUDY    28  27  93 NW6       29.82R WCI  22
WATERTON GATE    N/A     23  21  93 E2          N/A
CARDSTON         N/A     23  21  93 N1          N/A
MILK RIVER       N/A     25  25 100 NW6         N/A  WCI  18
$$

REGIONAL REPORTS...SASKATCHEWAN

CITY           SKY/WX    TMP DP  RH WIND       PRES   REMARKS
SWIFT CURRENT  CLOUDY    25  25 100 NW18      29.71R WCI  11
REGINA         CLOUDY    27  25  93 W8        29.68R WCI  18
SASKATOON      FLURRIES  27  25  93 N14       29.73R WCI  15
ASSINIBOIA       N/A     18  16  93 N6          N/A  WCI   9
$$




USA.gov is the U.S. government's official web portal to all federal, state and local government web resources and services.